FW4606 Weather Reports


Display with metric or nautical units.
time (UTC)temp
F
wind
direction
speed
MPH
gust
MPH
rain 1hr
in
rain 24hr
in
rain mn
in
humidity
%
barometer
mb
20260504200307 60 13 1.0 8.0 0.00 0.00 0.00 43 1000.8
20260504195800 62 324 2.0 8.0 0.00 0.00 0.00 44 1000.8
20260504195255 62 323 2.0 7.0 0.00 0.00 0.00 44 1000.7
20260504195021 63 134 3.0 10.0 0.00 0.00 0.00 45 1000.5
20260504194244 64 214 3.0 13.0 0.00 0.00 0.00 43 1000.4
20260504193737 64 290 3.0 13.0 0.00 0.00 0.00 44 1000.3
20260504193231 64 165 3.0 9.0 0.00 0.00 0.00 45 1000.3
20260504192725 64 240 3.0 9.0 0.00 0.00 0.00 44 1000.2
20260504192219 64 225 2.0 8.0 0.00 0.00 0.00 43 1000.2
20260504191713 64 290 4.0 10.0 0.00 0.00 0.00 43 1000.2
20260504191207 63 139 3.0 10.0 0.00 0.00 0.00 45 1000.0
20260504190701 64 193 2.0 8.0 0.00 0.00 0.00 46 1000.1
20260504190155 63 316 2.0 8.0 0.00 0.00 0.00 46 999.9
20260504185650 63 102 2.0 10.0 0.00 0.00 0.00 47 999.8
20260504185644 62 312 3.0 10.0 0.00 0.00 0.00 44 999.7
20260504184636 62 180 3.0 10.0 0.00 0.00 0.00 48 999.7
20260504184131 63 95 3.0 10.0 0.00 0.00 0.00 45 999.7
20260504183625 63 204 3.0 10.0 0.00 0.00 0.00 46 999.6
20260504183349 63 252 3.0 7.0 0.00 0.00 0.00 48 999.6
20260504182613 62 162 3.0 10.0 0.00 0.00 0.00 48 999.4
20260504182107 61 133 3.0 10.0 0.00 0.00 0.00 45 999.4
20260504181601 61 295 3.0 9.0 0.00 0.00 0.00 44 999.2
20260504181054 62 18 2.0 9.0 0.00 0.00 0.00 45 999.2
20260504180819 63 321 2.0 7.0 0.00 0.00 0.00 46 999.1
20260504180042 64 94 2.0 10.0 0.00 0.00 0.00 47 999.1
20260504175537 64 39 2.0 10.0 0.00 0.00 0.00 46 998.9
20260504175031 64 97 2.0 9.0 0.00 0.00 0.00 47 999.0
20260504174524 64 68 3.0 10.0 0.00 0.00 0.00 42 998.7
20260504174019 64 113 3.0 10.0 0.00 0.00 0.00 43 998.6
20260504173744 64 176 3.0 11.0 0.00 0.00 0.00 46 998.8
20260504173239 64 131 3.0 11.0 0.00 0.00 0.00 40 998.7
20260504172501 64 222 3.0 9.0 0.00 0.00 0.00 45 998.7
20260504171954 64 305 4.0 12.0 0.00 0.00 0.00 45 998.7
20260504171720 63 122 4.0 11.0 0.00 0.00 0.00 43 998.5
20260504170943 62 222 5.0 11.0 0.00 0.00 0.00 44 998.6
20260504170436 61 215 5.0 9.0 0.00 0.00 0.00 45 998.7
20260504160325 62 179 3.0 13.0 0.00 0.00 0.00 46 998.1
20260504150718 62 231 3.0 8.0 0.00 0.00 0.00 48 997.6
20260504150443 61 110 2.0 5.0 0.00 0.00 0.00 51 997.7
20260504141114 59 180 2.0 6.0 0.00 0.00 0.00 51 997.5
20260504140607 58 211 1.0 8.0 0.00 0.00 0.00 54 997.5
20260504140333 58 167 2.0 8.0 0.00 0.00 0.00 53 997.5
20260504130727 58 194 2.0 7.0 0.00 0.00 0.00 55 996.8
20260504110231 59 212 5.0 11.0 0.00 0.00 0.00 45 994.8
20260504100119 58 249 3.0 10.0 0.00 0.00 0.00 43 994.9
20260504081547 57 214 2.0 5.0 0.00 0.00 0.00 45 996.9
20260504081045 57 239 2.0 5.0 0.00 0.00 0.00 45 997.0
20260504080553 57 239 1.0 7.0 0.00 0.00 0.00 45 997.1
20260504050515 55 231 1.0 4.0 0.00 0.00 0.00 51 1000.7
20260504050014 55 181 1.0 4.0 0.00 0.00 0.00 51 1000.8
20260504045744 55 235 0.0 3.0 0.00 0.00 0.00 50 1000.9
20260504045010 55 195 0.0 4.0 0.00 0.00 0.00 53 1001.0
20260504044511 54 204 0.0 4.0 0.00 0.00 0.00 51 1001.0
20260504044242 54 151 0.0 2.0 0.00 0.00 0.00 51 1001.1
20260504043506 54 153 0.0 3.0 0.00 0.00 0.00 51 1001.2
20260504043006 54 178 0.0 3.0 0.00 0.00 0.00 51 1001.3
20260504042506 54 162 0.0 1.0 0.00 0.00 0.00 51 1001.4
20260504042004 54 131 0.0 1.0 0.00 0.00 0.00 50 1001.5
20260504041502 55 131 0.0 1.0 0.00 0.00 0.00 50 1001.8
20260504041003 55 156 0.0 1.0 0.00 0.00 0.00 50 1001.9
20260504040458 55 190 0.0 1.0 0.00 0.00 0.00 49 1002.0
20260504035954 55 161 0.0 1.0 0.00 0.00 0.00 49 1002.1
20260504035454 54 170 0.0 1.0 0.00 0.00 0.00 49 1002.2
20260504034954 54 170 0.0 1.0 0.00 0.00 0.00 49 1002.3
20260504034454 54 181 0.0 1.0 0.00 0.00 0.00 48 1002.3
20260504034229 54 165 0.0 1.0 0.00 0.00 0.00 48 1002.5
20260504033453 54 165 0.0 1.0 0.00 0.00 0.00 48 1002.6
20260504032947 54 157 0.0 1.0 0.00 0.00 0.00 48 1002.7
20260504032441 54 156 0.0 0.0 0.00 0.00 0.00 47 1002.9
20260504031935 55 156 0.0 0.0 0.00 0.00 0.00 47 1002.9
20260504031431 55 157 0.0 0.0 0.00 0.00 0.00 46 1003.0
20260504031425 55 156 0.0 0.0 0.00 0.00 0.00 45 1003.0
20260504030417 56 156 0.0 0.0 0.00 0.00 0.00 45 1003.2
20260504025910 55 157 0.0 0.0 0.00 0.00 0.00 45 1003.2
20260504025405 55 157 0.0 0.0 0.00 0.00 0.00 46 1003.3
20260504024906 55 156 0.0 0.0 0.00 0.00 0.00 50 1003.3
20260504024901 55 156 0.0 0.0 0.00 0.00 0.00 46 1003.3
20260504023900 55 157 0.0 0.0 0.00 0.00 0.00 44 1003.4
20260504023641 56 156 0.0 0.0 0.00 0.00 0.00 43 1003.5
20260504023403 56 156 0.0 0.0 0.00 0.00 0.00 44 1003.5
20260504022358 56 156 0.0 0.0 0.00 0.00 0.00 43 1003.6
20260504021857 57 156 0.0 0.0 0.00 0.00 0.00 43 1003.5
20260504021628 57 156 0.0 0.0 0.00 0.00 0.00 42 1003.5
20260504021520 57 156 0.0 0.0 0.00 0.00 0.00 42 1003.5
20260504020354 57 156 0.0 0.0 0.00 0.00 0.00 41 1003.5
20260504015855 57 157 0.0 0.0 0.00 0.00 0.00 40 1003.5
20260504015625 58 157 0.0 0.0 0.00 0.00 0.00 40 1003.5
20260504014852 58 156 0.0 0.0 0.00 0.00 0.00 38 1003.5
20260504014353 58 156 0.0 0.0 0.00 0.00 0.00 38 1003.5
20260504013852 59 156 0.0 0.0 0.00 0.00 0.00 37 1003.5
20260504013352 60 156 0.0 0.0 0.00 0.00 0.00 36 1003.5
20260504013127 60 157 0.0 0.0 0.00 0.00 0.00 36 1003.5
20260504012356 61 157 0.0 0.0 0.00 0.00 0.00 35 1003.6
20260504011850 62 156 0.0 0.0 0.00 0.00 0.00 35 1003.5
20260504011344 62 156 0.0 0.0 0.00 0.00 0.00 35 1003.6
20260504010838 63 156 0.0 0.0 0.00 0.00 0.00 35 1003.6
20260504010332 63 157 0.0 1.0 0.00 0.00 0.00 35 1003.6
20260504005826 64 149 0.0 1.0 0.00 0.00 0.00 35 1003.6
20260504005320 64 152 0.0 2.0 0.00 0.00 0.00 34 1003.7
20260504004814 65 156 1.0 4.0 0.00 0.00 0.00 34 1003.7
20260504004308 66 143 2.0 4.0 0.00 0.00 0.00 33 1003.7
20260504003802 66 133 2.0 5.0 0.00 0.00 0.00 31 1003.7
20260504003256 66 218 3.0 5.0 0.00 0.00 0.00 31 1003.8
20260504002750 66 111 3.0 6.0 0.00 0.00 0.00 32 1003.9
20260504002516 66 198 3.0 6.0 0.00 0.00 0.00 31 1003.9
20260504002011 67 173 3.0 6.0 0.00 0.00 0.00 31 1003.9
20260504001232 67 163 3.0 6.0 0.00 0.00 0.00 31 1003.9
20260504000726 68 143 2.0 6.0 0.00 0.00 0.00 33 1004.0
20260504000220 67 184 2.0 4.0 0.00 0.00 0.00 36 1004.0
20260503235714 67 160 2.0 5.0 0.00 0.00 0.00 34 1004.0
20260503235208 68 215 2.0 5.0 0.00 0.00 0.00 32 1003.9
20260503234932 68 97 3.0 6.0 0.00 0.00 0.00 32 1003.9
20260503234156 69 203 3.0 6.0 0.00 0.00 0.00 31 1003.9
20260503233650 69 167 3.0 6.0 0.00 0.00 0.00 31 1004.0
20260503233144 70 183 4.0 8.0 0.00 0.00 0.00 28 1004.1
20260503232908 71 134 4.0 8.0 0.00 0.00 0.00 28 1004.0
20260503232132 72 251 4.0 9.0 0.00 0.00 0.00 28 1004.1
20260503231625 72 136 4.0 9.0 0.00 0.00 0.00 28 1004.1
20260503231120 72 194 4.0 6.0 0.00 0.00 0.00 27 1004.1
20260503230614 72 225 4.0 6.0 0.00 0.00 0.00 26 1004.2
20260503230108 73 146 5.0 8.0 0.00 0.00 0.00 27 1004.2
20260503225602 73 173 5.0 8.0 0.00 0.00 0.00 27 1004.2
20260503225326 73 205 3.0 8.0 0.00 0.00 0.00 26 1004.3
20260503224550 74 198 2.0 8.0 0.00 0.00 0.00 25 1004.3
20260503224044 74 314 1.0 7.0 0.00 0.00 0.00 27 1004.3
20260503223538 73 216 3.0 7.0 0.00 0.00 0.00 28 1004.4
20260503223032 73 122 4.0 9.0 0.00 0.00 0.00 28 1004.4
20260503222756 73 189 4.0 9.0 0.00 0.00 0.00 27 1004.5
20260503222019 74 127 4.0 8.0 0.00 0.00 0.00 27 1004.4
20260503221513 74 165 3.0 7.0 0.00 0.00 0.00 26 1004.4
20260503221008 74 163 2.0 6.0 0.00 0.00 0.00 27 1004.5
20260503220507 74 186 3.0 10.0 0.00 0.00 0.00 26 1004.5
20260503220501 74 134 3.0 10.0 0.00 0.00 0.00 22 1004.6
20260503215450 74 221 2.0 7.0 0.00 0.00 0.00 29 1004.5
20260503215215 73 56 2.0 6.0 0.00 0.00 0.00 25 1004.7
20260503214438 73 160 1.0 5.0 0.00 0.00 0.00 27 1004.8
20260503214202 73 167 1.0 5.0 0.00 0.00 0.00 24 1004.8
20260503213431 73 92 1.0 6.0 0.00 0.00 0.00 29 1004.9
20260503213425 73 20 1.0 6.0 0.00 0.00 0.00 26 1004.9
20260503212413 72 159 1.0 4.0 0.00 0.00 0.00 24 1004.9
20260503211913 73 342 1.0 5.0 0.00 0.00 0.00 25 1005.1
20260503211908 72 6 1.0 5.0 0.00 0.00 0.00 25 1005.1
20260503210855 73 217 1.0 4.0 0.00 0.00 0.00 30 1005.1
20260503210621 73 32 1.0 4.0 0.00 0.00 0.00 24 1005.2
20260503205843 73 232 1.0 4.0 0.00 0.00 0.00 29 1005.2
20260503205338 72 95 2.0 6.0 0.00 0.00 0.00 26 1005.2
20260503204832 72 72 2.0 10.0 0.00 0.00 0.00 25 1005.4
20260503204331 73 165 1.0 7.0 0.00 0.00 0.00 29 1005.5
20260503204326 73 338 2.0 10.0 0.00 0.00 0.00 24 1005.4
20260503203313 73 134 0.0 5.0 0.00 0.00 0.00 26 1005.7
20260503203038 73 149 0.0 4.0 0.00 0.00 0.00 24 1005.5
20260503202537 72 108 1.0 4.0 0.00 0.00 0.00 27 1005.7
20260503202257 72 342 2.0 7.0 0.00 0.00 0.00 28 1005.8
20260503201250 72 37 2.0 7.0 0.00 0.00 0.00 25 1005.8
20260503200744 72 15 1.0 7.0 0.00 0.00 0.00 26 1005.7